Simultaneous Nadir Overpasses (SNOs) Predictions

Prediction of SNOs between NOAA-19 and NPP Satellite Orbit:

Table of predicted SNOs for the next 14.0 days since TLE Epoch: 6/23/2017
Index Date (NOAA-19) Time (NOAA-19) Lat,Lon (NOAA-19) SZA (NOAA-19 ) Date (NPP) Time (NPP) Lat,Lon (NPP) SZA (NPP ) Distance(km) Time Diff (sec)
1 07/03/2017 13:59:16 80.75, -82.24 61.79 07/03/2017 14:00:24 80.79, -79.30 61.39 52.57 68
2 07/03/2017 14:50:07 -80.82, 87.29 118.47 07/03/2017 14:51:11 -80.83, 87.27 118.50 1.49 64
3 07/03/2017 15:41:11 80.82,-105.36 61.52 07/03/2017 15:41:56 80.83,-105.42 61.51 1.63 45
4 07/03/2017 16:32:08 -80.82, 61.99 118.49 07/03/2017 16:32:41 -80.83, 61.86 118.48 2.64 33
5 07/03/2017 17:23:12 80.83,-130.65 61.50 07/03/2017 17:23:25 80.81,-130.48 61.47 3.27 13
6 07/03/2017 18:14:09 -80.83, 36.70 118.51 07/03/2017 18:14:10 -80.81, 36.80 118.53 2.28 1
7 07/03/2017 19:05:14 80.82,-156.31 61.53 07/03/2017 19:04:56 80.83,-156.25 61.54 1.78 18
8 07/03/2017 19:56:11 -80.82, 11.03 118.48 07/03/2017 19:55:41 -80.84, 11.03 118.46 1.38 30
9 07/03/2017 20:47:15 80.83, 178.40 61.51 07/03/2017 20:46:26 80.84, 178.33 61.55 1.52 49




NCC Satellite Simultaneous Nadir Overpasses (SNOs) Prediction Service
